Temp
18 19 19 20 20 21 22 22 22 22 23 23 23 23 24 24 25 26 27 27 26 26 25 25 25 24 24 24 23 23 27 27 27 27 28 27 27 25 24 24 24 23 22 22 21
18 19 19 19 20 21 22 22 22 22 23 23 23 23 24 25 26 27 27 26 26 26 25 25 25 24 24 23 23 25 27 27 27 27 27 28 28 27 26 25 23 21 21 21 20
19 19 19 19 20 21 22 22 22 22 23 23 23 24 24 25 26 27 27 27 26 26 25 25 25 24 24 23 23 24 27 26 27 26 26 28 27 25 26 26 25 22 19 18 19
18 19 19 19 20 21 22 22 22 23 23 23 23 24 24 25 27 27 27 26 26 25 25 25 25 24 24 25 23 26 25 26 26 26 27 29 27 25 26 26 25 23 20 19 19
18 19 19 20 20 20 21 22 22 23 23 23 23 24 24 24 26 26 26 26 26 25 25 25 25 24 26 24 23 25 26 26 26 27 28 28 27 27 24 23 23 21 20 20 20
18 19 19 20 20 21 21 22 22 22 23 23 23 23 24 25 27 26 26 26 26 25 25 25 25 25 24 24 24 24 25 26 26 28 28 28 27 27 23 22 21 21 20 21 21
19 19 19 20 20 21 21 22 22 22 23 23 23 23 24 26 26 27 26 26 25 25 25 25 25 24 24 25 23 24 27 29 28 28 28 28 28 27 23 22 22 22 21 21 21
19 19 19 20 20 21 21 22 22 23 23 23 23 23 25 26 26 27 26 26 25 25 25 25 25 24 24 23 25 26 26 28 28 29 26 29 28 25 23 23 23 22 22 21 21
19 19 20 20 20 21 22 22 22 23 23 23 23 23 25 26 26 27 27 26 26 25 25 25 24 24 24 26 26 26 27 27 28 28 28 29 28 26 24 24 24 23 22 22 22
19 19 20 20 20 21 22 22 22 22 22 23 23 23 26 26 26 27 27 26 26 24 24 24 24 24 25 26 28 27 27 27 27 28 28 28 29 27 25 24 25 24 23 23 23
19 19 20 20 20 21 22 22 22 22 22 24 24 25 26 26 26 26 27 26 26 25 25 22 25 24 27 27 27 27 27 27 27 29 29 29 29 29 26 25 25 25 24 24 24
19 19 20 20 20 21 22 22 22 21 22 25 25 25 25 26 26 26 26 27 25 26 23 25 25 27 27 27 27 26 27 28 28 28 28 28 29 29 27 27 26 26 25 25 25
19 19 20 20 20 21 22 22 22 21 21 24 25 25 26 26 26 26 26 26 26 25 25 25 27 26 27 27 27 27 27 27 29 28 28 28 29 29 29 27 26 26 26 26 26
19 19 20 20 20 21 22 22 22 22 24 26 25 26 26 26 26 26 26 27 25 26 25 26 27 27 28 28 28 28 28 28 28 28 30 28 30 29 30 29 28 27 27 26 26
19 19 20 20 20 21 21 21 22 22 25 26 26 25 26 27 27 27 26 26 28 27 26 28 27 27 28 28 28 29 29 28 28 28 28 28 30 32 27 30 30 30 29 28 27
19 19 20 20 21 20 21 22 22 24 24 26 26 26 27 26 26 25 26 26 27 28 27 26 26 27 29 29 29 29 29 28 28 30 30 27 30 32 31 31 32 32 30 30 28
19 19 20 20 21 21 21 22 24 24 25 26 26 27 28 27 27 27 27 27 28 27 26 27 28 28 28 29 29 29 30 30 30 30 30 27 28 32 30 30 30 31 31 30 28
19 19 20 20 20 21 21 23 23 24 24 25 25 25 27 26 27 28 25 25 27 26 26 27 29 28 29 30 31 30 32 31 29 30 30 26 29 31 28 27 27 27 26 26 28
19 19 20 20 20 20 21 24 25 24 24 24 25 26 27 27 27 28 28 28 27 28 27 27 28 29 30 31 31 29 30 29 29 25 29 29 29 29 29 29 26 27 26 25 24
19 19 19 20 20 20 22 21 24 23 24 23 25 25 26 27 28 28 27 28 28 27 27 27 28 29 30 30 29 31 28 31 29 28 29 29 28 31 30 28 26 26 25 23 23
18 19 18 20 20 20 23 23 23 24 23 24 22 24 24 26 28 27 28 27 28 26 27 27 28 29 28 30 32 29 30 27 29 28 31 30 31 27 27 26 26 24 23 23 22
18 20 18 18 20 16 21 21 23 25 22 24 22 22 24 25 26 27 28 26 27 25 27 27 28 29 31 29 29 30 30 31 32 28 26 28 31 26 25 24 24 23 22 22 22
18 17 16 18 21 21 20 23 23 25 24 24 25 23 22 23 25 26 27 27 27 26 27 24 26 29 31 31 29 30 28 28 29 29 28 31 31 25 24 24 23 23 22 22 24
17 19 17 18 18 21 22 23 25 24 25 24 25 23 21 23 23 25 26 27 26 27 26 26 27 29 30 30 29 30 29 28 30 31 29 31 28 25 25 25 24 23 22 22 23
17 19 18 20 20 20 22 23 24 25 24 25 25 25 24 25 24 25 25 27 27 26 26 26 28 27 28 28 28 28 28 29 30 29 32 30 29 27 25 25 24 23 22 22 21
17 17 17 17 17 20 19 22 23 25 25 26 25 27 25 24 26 27 27 27 28 25 26 24 25 24 27 28 29 28 27 27 27 26 26 26 27 26 24 23 23 22 22 22 21
16 16 16 16 19 22 22 23 24 23 25 25 26 27 25 27 26 27 27 27 28 28 26 26 28 25 27 25 28 29 27 27 26 25 27 28 28 24 24 24 23 22 22 22 21
Height
1517 1516 1516 1515 1515 1514 1514 1515 1514 1514 1514 1513 1513 1512 1510 1509 1508 1505 1504 1506 1507 1508 1508 1508 1509 1510 1511 1510 1510 1509 1508 1513 1511 1509 1507 1507 1507 1510 1512 1513 1517 1519 1519 1520 1524
1516 1516 1515 1514 1514 1514 1514 1514 1514 1514 1513 1512 1512 1511 1509 1507 1505 1504 1505 1505 1506 1507 1508 1508 1508 1509 1510 1510 1509 1508 1509 1511 1507 1507 1505 1505 1508 1510 1513 1515 1518 1519 1519 1521 1525
1515 1515 1514 1514 1513 1513 1513 1513 1513 1513 1512 1511 1511 1510 1508 1507 1505 1504 1504 1504 1506 1507 1508 1508 1508 1509 1509 1508 1508 1508 1509 1509 1508 1507 1505 1504 1507 1511 1513 1514 1513 1516 1519 1522 1526
1513 1514 1514 1513 1513 1512 1512 1512 1512 1512 1511 1510 1510 1509 1507 1507 1508 1504 1504 1505 1506 1508 1508 1508 1508 1508 1509 1508 1508 1507 1508 1508 1507 1505 1503 1504 1508 1511 1513 1513 1512 1514 1518 1521 1527
1513 1512 1513 1512 1512 1511 1511 1511 1510 1510 1510 1509 1509 1508 1507 1507 1505 1504 1504 1505 1506 1507 1508 1507 1506 1507 1508 1510 1509 1507 1505 1506 1505 1504 1502 1504 1508 1511 1515 1514 1514 1517 1522 1525 1528
1512 1511 1511 1510 1510 1510 1509 1510 1509 1509 1508 1508 1508 1507 1506 1507 1504 1503 1504 1505 1506 1507 1508 1507 1506 1506 1508 1509 1509 1508 1505 1503 1503 1504 1504 1505 1509 1511 1517 1516 1518 1521 1524 1527 1530
1510 1510 1510 1509 1509 1508 1508 1508 1508 1508 1507 1507 1506 1507 1505 1504 1503 1503 1503 1505 1506 1507 1508 1507 1507 1508 1508 1508 1509 1508 1504 1501 1501 1502 1504 1505 1509 1511 1516 1518 1520 1523 1527 1529 1531
1508 1508 1508 1508 1507 1506 1506 1506 1507 1506 1505 1506 1505 1506 1503 1501 1502 1503 1503 1505 1506 1507 1507 1507 1507 1508 1509 1508 1509 1508 1507 1511 1503 1502 1505 1504 1515 1513 1516 1518 1521 1524 1527 1529 1531
1506 1506 1505 1506 1505 1505 1504 1505 1505 1504 1504 1504 1505 1505 1501 1501 1501 1502 1503 1505 1506 1507 1507 1507 1508 1509 1510 1508 1510 1510 1516 1514 1508 1503 1504 1505 1511 1511 1515 1518 1521 1523 1526 1528 1530
1503 1503 1504 1504 1504 1503 1503 1503 1503 1503 1503 1503 1503 1506 1500 1500 1500 1500 1502 1504 1506 1507 1508 1509 1508 1509 1508 1507 1518 1516 1514 1514 1513 1506 1504 1507 1506 1509 1515 1517 1518 1522 1525 1527 1528
1501 1501 1501 1502 1502 1501 1503 1503 1506 1504 1501 1498 1499 1498 1497 1499 1499 1500 1501 1503 1504 1506 1508 1509 1510 1513 1504 1504 1504 1507 1511 1513 1506 1502 1504 1504 1505 1506 1512 1516 1517 1520 1522 1523 1524
1499 1498 1499 1500 1500 1499 1501 1501 1502 1503 1499 1494 1495 1495 1496 1497 1499 1499 1502 1504 1504 1505 1508 1510 1510 1503 1501 1503 1505 1507 1510 1509 1504 1500 1503 1504 1505 1503 1508 1508 1511 1516 1518 1519 1520
1496 1496 1497 1498 1498 1498 1499 1500 1502 1501 1500 1492 1490 1491 1493 1496 1497 1499 1501 1501 1503 1505 1506 1510 1502 1501 1502 1503 1506 1505 1508 1507 1505 1504 1503 1505 1505 1504 1502 1506 1509 1511 1514 1515 1515
1493 1494 1495 1496 1499 1496 1498 1500 1501 1501 1500 1489 1488 1487 1490 1492 1495 1497 1498 1501 1502 1503 1504 1503 1498 1499 1500 1500 1500 1507 1495 1498 1503 1508 1513 1507 1520 1507 1500 1502 1504 1506 1507 1507 1509
1491 1492 1493 1495 1495 1496 1498 1499 1500 1501 1517 1488 1486 1486 1488 1491 1493 1493 1495 1498 1497 1500 1504 1501 1497 1497 1498 1496 1496 1498 1492 1497 1501 1508 1511 1513 1513 1499 1504 1501 1497 1497 1499 1500 1501
1488 1489 1491 1493 1495 1496 1497 1499 1502 1505 1515 1488 1485 1485 1487 1490 1491 1493 1497 1499 1497 1497 1497 1497 1497 1495 1492 1491 1493 1495 1498 1500 1504 1504 1520 1519 1512 1502 1501 1497 1492 1493 1495 1494 1497
1486 1487 1489 1491 1493 1494 1496 1498 1505 1510 1490 1491 1487 1484 1484 1487 1490 1490 1495 1497 1498 1507 1507 1497 1491 1490 1491 1495 1492 1495 1498 1515 1521 1519 1521 1517 1518 1499 1494 1495 1494 1492 1494 1495 1496
1484 1485 1486 1490 1492 1493 1496 1499 1510 1493 1493 1487 1486 1485 1486 1485 1486 1489 1496 1502 1496 1501 1507 1508 1505 1488 1485 1485 1485 1491 1490 1504 1532 1523 1517 1520 1517 1499 1496 1496 1492 1494 1494 1494 1492
1482 1483 1485 1487 1490 1493 1496 1499 1493 1491 1488 1488 1486 1486 1486 1485 1485 1489 1489 1490 1491 1492 1505 1506 1500 1483 1481 1480 1482 1492 1496 1494 1509 1525 1520 1513 1503 1494 1493 1495 1495 1494 1494 1495 1494
1480 1482 1483 1484 1488 1492 1494 1496 1490 1487 1488 1487 1489 1486 1490 1484 1485 1485 1488 1480 1485 1487 1489 1493 1503 1484 1481 1481 1485 1483 1490 1500 1505 1531 1531 1518 1516 1500 1495 1496 1498 1497 1497 1498 1498
1480 1481 1482 1483 1488 1491 1490 1489 1487 1486 1487 1488 1493 1490 1490 1487 1481 1485 1483 1481 1480 1487 1488 1489 1493 1487 1483 1481 1480 1490 1491 1501 1501 1510 1512 1519 1505 1496 1498 1501 1501 1502 1501 1501 1502
1479 1480 1481 1484 1488 1489 1489 1486 1485 1484 1485 1485 1488 1490 1491 1488 1483 1483 1481 1474 1476 1476 1484 1487 1488 1493 1480 1476 1476 1478 1482 1481 1494 1515 1516 1510 1501 1497 1499 1501 1503 1504 1503 1503 1503
1478 1481 1482 1483 1482 1484 1486 1483 1483 1482 1482 1484 1485 1488 1492 1493 1492 1480 1479 1476 1476 1477 1481 1488 1492 1494 1485 1477 1478 1480 1484 1485 1487 1492 1507 1503 1499 1497 1501 1502 1504 1505 1504 1503 1503
1479 1480 1483 1482 1481 1479 1480 1481 1480 1478 1480 1480 1482 1485 1490 1491 1487 1485 1480 1475 1474 1476 1479 1482 1484 1481 1491 1486 1482 1485 1483 1485 1483 1491 1498 1490 1495 1499 1500 1501 1503 1504 1502 1503 1504
1477 1476 1476 1478 1478 1479 1478 1479 1478 1478 1476 1474 1474 1475 1482 1490 1488 1483 1478 1472 1474 1477 1478 1480 1485 1484 1481 1480 1482 1484 1484 1483 1484 1485 1484 1486 1489 1492 1497 1500 1501 1503 1504 1505 1506
1476 1476 1476 1476 1476 1479 1479 1477 1477 1475 1473 1472 1472 1469 1478 1485 1478 1476 1472 1473 1467 1475 1477 1479 1489 1490 1490 1480 1478 1486 1486 1485 1486 1489 1491 1491 1494 1493 1500 1501 1503 1504 1505 1506 1508
1476 1475 1476 1476 1476 1475 1473 1472 1471 1476 1471 1472 1474 1473 1478 1473 1469 1463 1464 1466 1464 1465 1472 1476 1475 1495 1496 1488 1486 1491 1485 1485 1486 1487 1486 1490 1485 1494 1499 1502 1504 1505 1506 1507 1509
Wind_Speed
6 5 4 3 3 1 4 5 4 4 5 7 7 9 12 12 13 13 4 3 7 6 7 6 7 8 6 3 2 2 2 4 4 5 5 9 4 6 5 15 4 2 6 10 26
7 6 5 5 4 3 3 5 5 4 6 7 8 9 12 14 10 4 3 4 7 7 8 4 5 9 3 1 1 2 2 1 1 4 5 6 5 8 4 12 4 6 7 24 27
7 7 5 5 4 3 4 4 6 5 6 6 8 10 12 13 3 2 4 4 7 7 5 2 4 5 1 1 1 2 2 1 1 6 6 5 6 5 6 6 7 11 21 25 26
7 7 7 5 5 4 5 5 6 6 6 7 7 10 11 8 0 2 3 5 5 5 3 1 3 3 2 1 0 3 3 2 1 6 4 8 11 4 2 4 3 14 25 26 25
8 7 7 6 6 5 5 6 6 6 7 7 7 9 10 5 2 2 1 5 5 4 4 2 0 5 3 3 0 1 2 3 5 3 7 13 8 6 4 8 15 19 25 23 22
8 8 7 6 5 6 6 7 6 7 7 7 8 9 9 4 2 1 3 7 6 2 1 4 3 4 5 2 2 2 5 9 3 6 6 9 7 4 5 13 17 20 20 22 21
9 9 8 7 6 6 6 7 7 7 7 7 9 9 12 10 4 1 5 8 5 3 4 5 1 3 2 2 1 1 1 3 8 2 4 8 4 3 14 15 18 15 18 19 21
9 9 8 7 6 6 7 7 7 7 7 7 8 9 8 5 4 4 7 7 3 2 3 4 1 2 1 0 1 1 2 1 2 1 2 0 2 6 16 17 16 16 17 17 19
9 9 8 7 7 5 6 7 7 7 7 8 7 5 8 4 5 8 6 6 4 4 3 4 3 3 2 2 2 4 3 2 1 1 3 2 1 5 15 14 15 16 17 17 17
9 9 9 7 6 5 6 6 7 7 8 8 10 5 2 4 1 7 12 7 4 3 1 1 2 0 1 1 3 3 3 1 1 2 3 4 5 6 16 16 16 16 17 17 18
10 8 8 7 6 4 4 4 4 4 9 7 2 2 1 4 4 2 14 12 3 0 1 2 2 3 5 3 7 6 1 1 3 4 3 7 7 5 16 16 16 16 18 21 23
10 8 7 6 5 3 2 3 4 1 6 11 21 21 18 11 1 2 10 7 3 4 2 1 6 3 5 8 3 1 2 3 3 4 8 2 2 3 13 17 19 18 19 21 21
9 7 6 5 6 4 5 6 4 7 3 5 10 11 10 10 6 5 11 5 3 4 4 5 1 3 7 5 3 3 5 4 2 4 1 2 2 3 5 12 10 18 19 20 22
8 6 5 5 5 5 7 8 4 5 2 3 4 7 13 12 2 7 11 8 3 4 5 5 2 5 6 5 4 3 6 3 7 6 1 4 2 3 5 6 11 17 19 23 24
7 6 6 7 1 6 8 5 3 2 3 2 2 6 11 9 9 2 15 9 10 4 4 2 3 3 5 4 7 2 1 9 5 4 2 2 3 2 0 7 12 13 18 20 22
6 6 7 8 8 6 6 3 7 3 5 2 4 6 9 3 4 5 8 6 4 6 3 5 2 4 5 4 11 10 6 8 5 2 2 1 3 2 3 5 6 13 16 19 19
5 6 8 7 6 9 3 12 2 3 2 3 1 5 8 6 5 5 9 10 6 2 2 4 4 3 6 6 6 8 5 2 3 3 1 4 4 2 5 8 11 13 10 11 12
4 6 8 9 8 12 9 2 4 1 3 1 0 1 9 5 4 7 3 4 8 3 0 3 4 7 9 7 5 11 4 3 1 0 3 3 4 2 3 8 6 3 7 7 6
4 6 7 10 13 10 6 5 3 3 1 4 3 3 5 5 4 10 10 8 9 16 7 4 4 2 7 3 1 4 3 3 5 2 3 0 2 6 1 9 14 14 15 17 17
3 4 5 11 14 11 2 4 2 2 2 1 2 1 3 7 9 8 9 6 8 9 6 5 4 3 2 3 5 3 8 3 1 4 3 2 4 2 3 10 9 12 17 18 20
4 3 3 12 17 5 5 5 3 2 4 2 1 2 1 3 9 4 3 6 9 8 7 6 3 1 2 5 7 4 4 5 4 2 2 3 3 1 7 5 3 8 13 16 18
3 2 6 22 5 1 4 5 2 4 2 3 2 1 1 6 4 5 6 6 7 10 6 4 3 4 1 1 2 1 3 5 3 4 1 2 1 3 1 6 8 9 11 15 18
3 4 15 7 4 4 2 4 4 4 4 3 5 5 3 3 3 5 4 3 14 11 10 8 4 3 5 5 4 1 3 3 6 3 5 2 2 4 7 10 9 10 11 15 18
3 3 3 4 2 3 5 4 6 6 5 8 6 8 4 5 6 3 4 4 14 11 4 10 4 2 1 1 1 2 4 6 1 3 6 5 6 9 8 8 9 10 12 13 15
3 2 4 5 5 3 3 4 7 5 7 7 2 6 1 4 3 5 6 3 8 8 5 2 2 1 4 5 3 1 1 6 4 0 4 2 9 15 11 8 9 8 9 9 10
1 1 3 1 3 6 1 5 7 6 4 5 5 2 3 6 8 13 4 5 6 8 7 1 1 5 3 2 5 3 2 6 4 5 3 5 5 7 9 7 9 9 7 7 7
1 2 1 1 3 6 5 6 7 4 6 8 4 3 4 13 24 20 15 12 4 11 7 2 4 1 3 5 2 2 1 1 2 2 5 5 4 13 8 9 9 8 7 7 6
Wind_Direction
323 327 329 323 307 256 250 264 263 265 274 289 305 311 311 320 319 312 305 170 168 171 160 137 180 185 172 193 185 216 93 53 27 20 343 162 154 152 116 138 115 121 138 167 163
317 318 323 315 301 281 255 259 269 261 271 287 303 309 317 328 338 49 22 155 181 171 179 197 174 176 167 169 14 54 88 72 321 343 321 216 175 152 137 151 115 98 133 154 164
316 312 315 310 302 285 266 257 263 260 271 286 301 309 322 334 351 29 30 143 179 189 195 213 170 171 116 97 46 108 135 168 40 328 324 193 147 137 149 203 194 167 150 155 163
309 306 309 308 301 283 267 259 261 258 265 282 296 308 323 332 86 356 49 144 178 176 192 163 194 146 131 197 127 162 212 186 282 322 309 161 140 95 216 336 177 159 159 158 165
302 298 302 301 297 286 271 259 255 258 263 277 295 309 328 323 268 15 120 167 181 159 125 345 18 148 150 126 141 261 291 282 329 7 89 129 117 127 51 100 129 141 157 161 165
300 297 293 292 288 283 271 263 254 259 264 278 293 306 316 289 300 329 166 167 161 146 338 336 27 106 104 83 201 267 298 318 353 85 110 124 117 141 121 133 134 150 165 169 173
297 295 293 291 286 275 271 266 260 258 264 276 294 309 301 270 272 257 174 172 170 120 63 41 356 57 117 161 130 243 308 39 43 72 104 124 136 68 151 151 149 159 172 181 187
293 291 291 287 282 277 272 267 265 261 262 276 292 312 276 280 238 189 182 183 189 248 320 330 20 81 101 117 106 47 48 67 8 333 81 326 328 119 163 161 159 169 180 192 199
289 288 286 286 279 275 268 266 264 259 259 267 288 300 277 315 244 198 183 193 205 246 323 8 145 124 164 200 100 22 114 43 359 248 134 219 298 145 174 181 174 180 191 199 208
284 286 285 286 277 271 263 264 262 257 257 266 260 286 257 8 8 220 190 180 181 183 257 163 64 106 165 208 141 122 119 150 283 91 216 182 233 169 184 191 200 194 200 207 216
284 280 282 282 275 266 264 268 270 263 236 219 241 204 184 64 39 215 184 198 230 10 140 17 270 239 272 192 106 106 116 314 255 226 280 240 244 193 189 204 208 211 213 217 223
281 278 277 276 271 252 224 188 148 79 304 251 246 252 254 274 340 77 183 193 189 246 104 160 255 219 75 183 204 165 278 271 275 339 208 215 232 210 186 219 216 214 219 227 236
280 273 268 262 258 224 195 176 196 321 281 278 235 238 242 191 166 221 188 191 225 241 218 222 87 189 211 202 218 239 236 207 177 108 167 222 182 204 216 231 227 226 227 233 236
276 263 250 246 252 198 181 184 274 275 302 230 226 211 168 158 160 242 217 202 192 275 187 248 247 220 206 243 205 284 224 219 162 188 144 328 84 242 227 248 237 235 231 235 237
271 249 232 212 195 164 166 183 299 161 268 67 144 168 177 183 139 209 205 221 237 189 223 18 301 257 239 240 181 323 81 155 135 137 214 170 245 146 236 236 242 238 236 239 238
268 241 225 217 215 158 158 213 150 206 241 46 139 167 158 175 137 117 184 226 280 266 274 276 249 250 248 275 214 151 101 92 98 186 256 7 252 125 196 244 249 237 239 247 241
263 230 219 202 187 180 180 145 181 215 358 25 66 170 183 167 153 141 178 192 211 221 342 323 238 252 226 253 184 216 205 153 171 181 30 338 208 295 312 311 278 287 279 287 271
249 221 217 198 182 164 156 178 212 201 251 347 127 147 199 153 196 208 204 206 229 137 321 284 214 192 178 228 202 187 230 229 249 224 68 146 210 162 346 336 343 342 19 19 14
236 221 215 197 189 176 158 198 224 207 2 308 121 162 179 208 174 200 203 215 198 196 215 187 267 266 229 250 213 161 195 31 104 50 254 200 239 255 253 54 33 48 61 54 62
221 196 186 185 182 176 167 213 235 209 158 51 40 354 193 189 190 184 182 196 180 184 205 186 264 204 158 139 51 258 132 141 83 168 208 173 279 207 353 357 17 58 68 66 68
187 168 213 170 157 161 204 213 230 193 182 133 312 357 288 303 225 181 217 166 184 180 192 152 227 154 239 201 175 140 166 69 105 310 215 186 212 194 293 337 63 65 71 75 76
162 163 159 154 157 144 181 200 178 176 152 106 127 98 338 315 255 216 227 354 154 121 167 196 212 252 231 85 1 85 149 171 209 177 67 304 165 350 360 118 113 92 78 77 78
134 99 156 173 179 180 214 216 218 207 180 160 188 193 193 250 288 233 197 233 194 168 169 175 237 240 151 147 110 197 132 123 109 137 175 223 126 112 131 116 107 103 88 81 75
174 130 168 239 237 192 175 176 218 236 224 196 185 169 159 231 239 279 239 208 185 189 210 163 214 178 88 10 60 219 149 156 287 179 156 227 165 178 157 128 117 110 92 82 78
210 197 167 185 218 187 159 172 211 235 220 207 246 178 159 279 244 224 225 239 170 201 144 210 213 96 287 262 201 51 105 179 209 49 238 43 199 178 164 149 132 120 105 97 91
253 233 180 170 164 181 179 189 210 222 206 210 257 281 191 234 256 289 242 221 183 175 188 151 352 58 280 14 134 118 103 113 118 142 94 149 175 170 150 143 147 147 139 122 111
263 250 224 153 152 186 205 207 227 222 235 241 238 243 255 295 318 286 250 274 227 169 172 134 127 163 324 18 346 264 335 320 103 182 155 179 158 150 150 167 168 164 167 154 142